Oxford, NC

9:44 PM EST on December 14, 2019 (GMT -0500)
Henderson-Oxford

Weather History for KHNZ - October, 2019

Change the Weather History Date:

Thursday, October 3, 2019

  Actual Average (WUND) Record (WUND)
Temperature  
Mean Temperature 79 °F -  
Max Temperature 95 °F - - (-1)
Min Temperature 63 °F - - (-1)
Cooling Degree Days 14    
Growing Degree Days 29 (Base 50)    
Moisture  
Dew Point 61 °F    
Average Humidity 58    
Maximum Humidity 94    
Minimum Humidity 26    
Precipitation  
Precipitation 0.00 in - - ()
Sea Level Pressure  
Sea Level Pressure 29.97 in    
Wind  
Wind Speed 1 mph (SW)    
Max Wind Speed 7 mph    
Max Gust Speed -    
Visibility 10 miles    
Events      
Averages and records for this station are not official NWS values.
T = Trace of Precipitation, MM = Missing Value Source: NWS Daily Summary

Daily Weather History Graph

Daily Weather History Graph

Search for Another Location

Airport or City:

Astronomy

Oct. 03, 2019 Rise Set
Actual Time 7:10 AM EDT 6:55 PM EDT
Civil Twilight 6:45 AM EDT 7:20 PM EDT
Nautical Twilight 6:15 AM EDT 7:50 PM EDT
Astronomical Twilight 5:45 AM EDT 8:20 PM EDT
Moon 12:31 PM EDT (10/3) 10:41 PM EDT (10/3)
Length of Visible Light 12h 35m
Length of Day
11h 44m
Waxing Crescent, 29% of the Moon is Illuminated
Oct 3
Waxing Crescent
Oct 5
First Quarter
Oct 13
Full
Oct 21
Last Quarter
Oct 27
New

Hourly Weather History & Observations

Time (EDT) Temp. Heat Index Dew Point Humidity Pressure Visibility Wind Dir Wind Speed Gust Speed Precip Events Conditions
12:15 AM 70.5 °F - 63.0 °F 77% 29.96 in 10.0 mi Calm Calm - N/A   Clear
12:35 AM 69.1 °F - 63.1 °F 81% 29.96 in 10.0 mi Calm Calm - N/A   Clear
12:55 AM 68.9 °F - 63.7 °F 83% 29.96 in 10.0 mi Calm Calm - N/A   Clear
1:15 AM 67.6 °F - 63.7 °F 87% 29.96 in 10.0 mi Calm Calm - N/A   Clear
1:35 AM 67.6 °F - 63.3 °F 86% 29.96 in 10.0 mi Calm Calm - N/A   Clear
1:55 AM 68.2 °F - 63.0 °F 83% 29.96 in 10.0 mi Calm Calm - N/A   Clear
2:15 AM 68.2 °F - 62.2 °F 81% 29.96 in 10.0 mi Calm Calm - N/A   Clear
2:35 AM 68.4 °F - 62.6 °F 82% 29.96 in 10.0 mi Calm Calm - N/A   Clear
2:55 AM 67.1 °F - 62.8 °F 86% 29.95 in 10.0 mi Calm Calm - N/A   Clear
3:15 AM 67.5 °F - 63.0 °F 85% 29.95 in 10.0 mi Calm Calm - N/A   Clear
3:35 AM 68.5 °F - 63.5 °F 84% 29.95 in 10.0 mi Calm Calm - N/A   Clear
3:55 AM 66.7 °F - 63.0 °F 88% 29.96 in 10.0 mi Calm Calm - N/A   Clear
4:35 AM 65.7 °F - 62.4 °F 89% 29.96 in 10.0 mi Calm Calm - N/A   Clear
4:55 AM 66.2 °F - 62.8 °F 89% 29.96 in 10.0 mi Calm Calm - N/A   Clear
5:15 AM 65.3 °F - 62.8 °F 92% 29.97 in 10.0 mi Calm Calm - N/A   Clear
5:35 AM 65.1 °F - 62.6 °F 92% 29.97 in 10.0 mi Calm Calm - N/A   Clear
5:55 AM 63.7 °F - 61.9 °F 94% 29.98 in 10.0 mi Calm Calm - N/A   Clear
6:15 AM 64.6 °F - 62.4 °F 93% 29.98 in 10.0 mi Calm Calm - N/A   Clear
6:35 AM 66.4 °F - 63.0 °F 89% 29.99 in 10.0 mi Calm Calm - N/A   Clear
6:55 AM 64.8 °F - 61.7 °F 90% 30.00 in 10.0 mi Calm Calm - N/A   Clear
7:35 AM 65.1 °F - 61.9 °F 89% 30.01 in 10.0 mi Calm Calm - N/A   Clear
7:55 AM 65.1 °F - 63.0 °F 93% 30.01 in 7.0 mi Calm Calm - N/A   Clear
8:15 AM 68.0 °F - 63.5 °F 85% 30.02 in 10.0 mi Calm Calm - N/A   Clear
8:35 AM 71.4 °F - 64.2 °F 78% 30.02 in 10.0 mi Calm Calm - N/A   Clear
8:55 AM 75.2 °F - 62.8 °F 65% 30.02 in 10.0 mi Calm Calm - N/A   Clear
9:15 AM 78.1 °F - 63.1 °F 60% 30.02 in 10.0 mi Calm Calm - N/A   Clear
9:35 AM 82.0 °F 83.1 °F 62.6 °F 52% 30.02 in 10.0 mi Calm Calm - N/A   Clear
9:55 AM 84.2 °F 84.8 °F 61.9 °F 47% 30.02 in 10.0 mi Calm Calm - N/A   Clear
10:15 AM 85.6 °F 86.1 °F 62.2 °F 45% 30.02 in 10.0 mi Calm Calm - N/A   Clear
10:35 AM 86.4 °F 86.8 °F 62.2 °F 44% 30.02 in 10.0 mi Calm Calm - N/A   Clear
10:55 AM 88.0 °F 88.4 °F 62.1 °F 42% 30.02 in 10.0 mi Calm Calm - N/A   Clear
11:15 AM 88.9 °F 89.1 °F 61.7 °F 40% 30.01 in 10.0 mi Calm Calm - N/A   Clear
11:35 AM 90.0 °F 90.3 °F 61.9 °F 39% 30.01 in 10.0 mi Calm Calm - N/A   Clear
11:55 AM 91.6 °F 91.0 °F 59.5 °F 34% 30.00 in 10.0 mi Calm Calm - N/A   Clear
12:15 PM 92.8 °F 92.4 °F 60.1 °F 33% 29.99 in 10.0 mi Calm Calm - N/A   Clear
12:35 PM 92.5 °F 91.6 °F 58.6 °F 32% 29.99 in 10.0 mi Calm Calm - N/A   Clear
12:55 PM 92.7 °F 91.5 °F 58.3 °F 31% 29.99 in 10.0 mi Calm Calm - N/A   Clear
1:15 PM 93.4 °F 92.5 °F 58.5 °F 31% 29.98 in 10.0 mi SW 5.8 mph - N/A   Clear
1:35 PM 94.5 °F 93.6 °F 58.8 °F 30% 29.98 in 10.0 mi WSW 6.9 mph - N/A   Clear
1:55 PM 93.6 °F 92.7 °F 58.3 °F 31% 29.97 in 10.0 mi East 5.8 mph - N/A   Clear
2:15 PM 93.7 °F 92.3 °F 57.0 °F 29% 29.96 in 10.0 mi WSW 5.8 mph - N/A   Clear
2:35 PM 94.8 °F 93.4 °F 57.2 °F 28% 29.95 in 10.0 mi WNW 6.9 mph - N/A   Clear
2:55 PM 95.0 °F 93.4 °F 56.5 °F 27% 29.95 in 10.0 mi SSW 4.6 mph - N/A   Clear
3:15 PM 94.6 °F 92.9 °F 55.6 °F 27% 29.95 in 10.0 mi Calm Calm - N/A   Clear
3:35 PM 95.2 °F 93.3 °F 55.6 °F 26% 29.94 in 10.0 mi SW 6.9 mph - N/A   Clear
3:55 PM 95.4 °F 93.8 °F 56.1 °F 27% 29.94 in 10.0 mi West 4.6 mph - N/A   Clear
4:15 PM 95.0 °F 93.4 °F 55.9 °F 27% 29.93 in 10.0 mi Calm Calm - N/A   Clear
4:35 PM 95.9 °F 94.2 °F 56.1 °F 26% 29.93 in 10.0 mi Calm Calm - N/A   Clear
4:55 PM 94.6 °F 92.9 °F 55.8 °F 27% 29.93 in 10.0 mi SW 4.6 mph - N/A   Clear
5:15 PM 94.5 °F 93.0 °F 56.3 °F 28% 29.93 in 10.0 mi Calm Calm - N/A   Clear
5:35 PM 94.3 °F 92.7 °F 56.7 °F 28% 29.93 in 10.0 mi Calm Calm - N/A   Clear
5:55 PM 93.4 °F 91.8 °F 56.3 °F 29% 29.93 in 10.0 mi Calm Calm - N/A   Clear
6:15 PM 91.2 °F 89.9 °F 57.6 °F 32% 29.93 in 10.0 mi Calm Calm - N/A   Clear
6:55 PM 88.3 °F 87.1 °F 57.6 °F 35% 29.94 in 10.0 mi Calm Calm - N/A   Clear
7:15 PM 85.1 °F 84.4 °F 58.1 °F 40% 29.94 in 10.0 mi Calm Calm - N/A   Clear
7:35 PM 84.6 °F 84.0 °F 58.5 °F 41% 29.95 in 10.0 mi Calm Calm - N/A   Clear
7:55 PM 81.3 °F 81.9 °F 60.3 °F 49% 29.95 in 10.0 mi Calm Calm - N/A   Clear
8:15 PM 79.7 °F - 61.0 °F 53% 29.96 in 10.0 mi Calm Calm - N/A   Clear
8:35 PM 79.3 °F - 59.9 °F 51% 29.96 in 10.0 mi Calm Calm - N/A   Clear
8:55 PM 77.9 °F - 60.6 °F 55% 29.97 in 10.0 mi Calm Calm - N/A   Clear
9:15 PM 79.5 °F - 59.4 °F 50% 29.97 in 10.0 mi Calm Calm - N/A   Clear
9:35 PM 77.9 °F - 60.1 °F 54% 29.97 in 10.0 mi Calm Calm - N/A   Clear
9:55 PM 77.5 °F - 59.9 °F 54% 29.97 in 10.0 mi Calm Calm - N/A   Clear
10:15 PM 75.0 °F - 61.2 °F 62% 29.97 in 10.0 mi Calm Calm - N/A   Clear
10:35 PM 75.2 °F - 61.5 °F 62% 29.97 in 10.0 mi Calm Calm - N/A   Clear
10:55 PM 72.1 °F - 62.1 °F 70% 29.98 in 10.0 mi Calm Calm - N/A   Clear
11:15 PM 72.1 °F - 61.9 °F 70% 29.98 in 10.0 mi Calm Calm - N/A   Clear
11:35 PM 71.6 °F - 61.3 °F 70% 29.98 in 10.0 mi SSW 3.5 mph - N/A   Clear
11:55 PM 71.6 °F - 61.7 °F 71% 29.97 in 10.0 mi Calm Calm - N/A   Clear